[[{"header":{"parameterUnit":"m.s-1","parameterCategory":1,"la1":30.2991,"la2":30.254,"lo1":-89.0895,"lo2":-89.0444,"dy":0.0017,"dx":0.0017,"nx":28,"ny":28,"refTime":"2026-02-14T03:00:00:Z","depth":0,"parameterNumber":2,"parameterNumberName":"U-component_of_WINDS"},"data":[0,0,0,0,0,0,0,0,0,0,0,0,0,0,0,0,0,0,0,0,0,0,0,0,0,0,0,0,0,0,0,0,0,0,0,0,0,0,0,0,0,0,0,0,0,0,0,0,0,0,0,0,0,0,0,0,0,0,3.4159,3.4158,0,3.4032,3.4031,3.4029,3.3905,3.3904,3.3902,3.39,3.3771,3.3769,3.3767,0,0,0,0,0,0,0,0,0,0,0,0,0,3.4297,3.4295,3.4159,3.4158,3.4156,3.4032,3.403,3.4029,3.3905,3.3903,3.3902,3.39,3.3771,3.3769,3.3767,0,0,0,0,0,0,0,0,0,0,0,0,0,3.421,3.4294,3.4159,3.408,3.4071,3.4033,3.403,3.4028,3.3906,3.3903,3.3901,3.3899,3.3772,3.3769,3.3767,3.3797,0,0,3.3758,3.3756,0,0,0,0,0,0,0,0,3.4215,3.4205,3.4093,3.4085,3.4075,3.3982,3.4031,3.3951,3.3906,3.3969,3.39,3.3898,3.3843,3.3834,3.3816,3.3791,3.3785,3.3757,3.3756,3.3754,3.3753,0,0,0,0,0,0,0,3.4222,3.421,3.4109,3.4091,3.4081,3.4051,3.4036,3.4016,3.3921,3.3963,3.3954,3.394,3.3838,3.3819,3.3812,3.3783,3.3757,3.3755,3.3753,3.3752,3.3779,3.3781,0,0,0,0,0,0,3.424,3.4216,3.4113,3.4105,3.4141,3.405,3.4033,3.4014,3.3921,3.3904,3.3943,3.3935,3.3825,3.3815,3.3807,3.3836,3.3754,3.3752,3.375,3.3776,3.3779,3.3782,0,0,0,0,0,0,3.4243,3.4232,3.4118,3.4158,3.4141,3.405,3.403,3.4013,3.3994,3.3905,3.3888,3.394,3.3823,3.3811,3.38,3.383,3.375,3.3748,3.3773,3.3777,3.378,3.3896,0,0,0,0,0,0,3.4248,3.4234,3.4243,3.4159,3.414,3.4114,3.4032,3.4012,3.3989,3.3978,3.3899,3.3883,3.382,3.3806,3.3798,3.3825,3.3745,3.377,3.3775,3.3779,3.3889,3.3903,3.3916,0,0,0,0,0,3.4253,3.4281,3.4245,3.4233,3.415,3.4115,3.4104,3.4031,3.3992,3.4002,3.3945,3.3886,3.3829,3.3806,3.3796,3.3822,3.3768,3.3774,3.3779,3.3883,3.3901,3.3915,0,0,0,0,0,0,3.437,3.4268,3.4227,3.4228,3.4182,3.4095,3.4104,3.4051,3.4014,3.4006,3.3916,3.3899,3.39,3.386,3.3836,3.3848,3.379,3.3794,3.3873,3.3889,3.3902,3.3911,3.3743,0,0,0,0,0,3.4397,3.4377,3.4289,3.4299,3.4277,3.4196,3.4178,3.4125,3.4073,3.4053,3.3995,3.3948,3.3919,3.3902,3.387,3.3884,3.3865,3.3897,3.3911,3.3922,3.3926,3.3931,3.3944,3.38,3.38,3.38,0,0,3.445,3.4392,3.4385,3.4321,3.4278,3.4261,3.4179,3.4163,3.4149,3.405,3.4037,3.3994,3.3935,3.3937,3.3935,3.3904,3.3962,3.3929,3.3938,3.3936,3.3938,3.3952,3.3964,3.3804,3.3803,3.3802,0,0,3.4538,3.4492,3.4496,3.4456,3.4393,3.4339,3.434,3.4262,3.4229,3.4215,3.414,3.4123,3.4075,3.4037,3.4011,3.4088,3.4032,3.4081,3.4148,3.4155,3.4166,3.4176,3.4203,3.4214,3.4085,3.4086,3.4086,0,3.4612,3.4582,3.4504,3.4493,3.4468,3.4379,3.4382,3.4347,3.4278,3.4263,3.4229,3.4168,3.4122,3.4114,3.4134,3.4116,3.4115,3.4088,3.4171,3.4179,3.4187,3.4213,3.4223,3.4092,3.4091,3.409,3.409,0,3.4677,3.4657,3.4668,3.4603,3.4579,3.4576,3.4499,3.4484,3.4435,3.4385,3.4372,3.4315,3.427,3.4265,3.4217,3.4251,3.4234,3.4187,3.4127,3.4209,3.4231,3.424,3.4101,3.4098,3.4097,3.4095,0,0,3.4832,3.4727,3.4732,3.4703,3.4629,3.4612,3.4606,3.4563,3.4553,3.4509,3.4501,3.4465,3.4421,3.4392,3.4339,3.4345,3.4411,3.4297,3.4294,3.432,3.4446,3.4481,3.4494,3.4374,3.4376,3.4377,3.4451,0,3.4907,3.4889,3.4821,3.4823,3.4805,3.4722,3.4716,3.4671,3.4625,3.4603,3.4552,3.4528,3.4472,3.4454,3.4456,3.4402,3.4435,3.4396,3.4366,3.4366,3.4383,3.4505,3.4541,3.4614,3.4459,3.446,3.4461,0,3.4991,3.4954,3.4955,3.4884,3.4873,3.4869,3.4826,3.4806,3.4754,3.472,3.469,3.4631,3.462,3.4566,3.4551,3.4527,3.4511,3.4483,3.4484,3.4477,3.4418,3.4501,3.4635,3.4646,3.4475,3.4473,3.4473,0,3.5104,3.5054,3.5049,3.5026,3.4943,3.4942,3.4908,3.4853,3.4832,3.4795,3.4781,3.4743,3.4722,3.4695,3.4628,3.4594,3.4621,3.456,3.4592,3.4594,3.46,3.46,3.4732,3.4592,3.4592,3.4592,3.4591,0,3.5194,3.5198,3.5099,3.5095,3.5098,3.5021,3.5026,3.4983,3.4936,3.4924,3.485,3.484,3.4753,3.4733,3.4681,3.4677,3.4668,3.4641,3.4627,3.4646,3.465,3.4634,3.4627,3.4594,3.4594,3.4593,3.4593,0,3.5319,3.5253,3.5242,3.5165,3.5146,3.5151,3.5085,3.5079,3.503,3.5016,3.5008,3.4931,3.4904,3.4835,3.479,3.4755,3.4766,3.474,3.4783,3.4774,3.481,3.4807,3.4935,3.4948,3.4801,3.4803,3.4804,0,3.538,3.5382,3.5306,3.5292,3.5261,3.524,3.5219,3.5144,3.5126,3.5068,3.507,3.5038,3.5007,3.4969,3.4909,3.4875,3.4848,3.4895,3.4842,3.4863,3.4848,3.4848,3.4848,3.4907,3.4909,3.491,3.4911,0,3.5496,3.5464,3.5436,3.5399,3.5377,3.5343,3.5306,3.5299,3.5215,3.5198,3.517,3.5148,3.5103,3.5072,3.503,3.4994,3.4939,3.4929,3.4935,3.4954,3.4979,3.4966,3.4814,3.4926,3.4924,3.4923,3.4923,3.4922,3.559,3.5588,3.5535,3.5508,3.5472,3.544,3.5431,3.5381,3.5357,3.5315,3.5273,3.525,3.52,3.5137,3.5106,3.5087,3.5058,3.5066,3.5068,3.5071,3.508,3.4984,3.5079,3.5079,3.5078,3.5078,3.5077,0,3.5701,3.5663,3.5639,3.559,3.557,3.5521,3.5478,3.5464,3.5445,3.5403,3.5376,3.5345,3.5316,3.5255,3.522,3.5217,3.5191,3.5211,3.5209,3.5202,3.5108,3.5106,3.5232,3.5232,3.5232,3.5232,3.5232,3.5232,3.5756,3.575,3.5713,3.569,3.5652,3.5629,3.5609,3.5579,3.5545,3.5514,3.549,3.5451,3.5402,3.5363,3.5335,3.5318,3.5308,3.5336,3.5311,3.5223,3.5209,3.5195,3.5193,3.5334,3.5335,3.5406,3.5406,3.5407]},{"header":{"parameterUnit":"m.s-1","parameterCategory":1,"la1":30.2991,"la2":30.254,"lo1":-89.0895,"lo2":-89.0444,"dy":0.0017,"dx":0.0017,"nx":28,"ny":28,"refTime":"2026-02-14T03:00:00:Z","depth":0,"parameterNumber":3,"parameterNumberName":"V-component_of_WINDS"},"data":[0,0,0,0,0,0,0,0,0,0,0,0,0,0,0,0,0,0,0,0,0,0,0,0,0,0,0,0,0,0,0,0,0,0,0,0,0,0,0,0,0,0,0,0,0,0,0,0,0,0,0,0,0,0,0,0,0,0,8.6042,8.6045,0,8.6271,8.6273,8.6276,8.6288,8.6285,8.6283,8.628,8.6508,8.6516,8.6524,0,0,0,0,0,0,0,0,0,0,0,0,0,8.5612,8.562,8.6042,8.6045,8.6048,8.627,8.6273,8.6277,8.6288,8.6285,8.6282,8.6279,8.6505,8.6515,8.6525,0,0,0,0,0,0,0,0,0,0,0,0,0,8.5815,8.5622,8.6042,8.6081,8.6087,8.627,8.6274,8.6277,8.6289,8.6285,8.6281,8.6277,8.6502,8.6514,8.6527,8.6684,0,0,8.6566,8.6571,0,0,0,0,0,0,0,0,8.5803,8.5831,8.6072,8.6078,8.6085,8.6247,8.6205,8.6414,8.629,8.6212,8.628,8.6276,8.6424,8.6443,8.6494,8.6695,8.6705,8.6567,8.6574,8.658,8.6584,0,0,0,0,0,0,0,8.5789,8.5821,8.6132,8.6076,8.6084,8.6085,8.611,8.6245,8.6337,8.6218,8.622,8.6247,8.6426,8.6482,8.6499,8.6708,8.6566,8.6578,8.6586,8.6591,8.7053,8.7057,0,0,0,0,0,0,8.5768,8.5809,8.6125,8.6139,8.5932,8.6096,8.6124,8.6199,8.6336,8.6353,8.625,8.6247,8.6462,8.6484,8.6507,8.6703,8.658,8.6592,8.6599,8.7048,8.7054,8.7059,0,0,0,0,0,0,8.5759,8.5797,8.6116,8.5975,8.6016,8.6108,8.6192,8.6205,8.6261,8.636,8.6376,8.629,8.646,8.6489,8.6641,8.6711,8.6598,8.6609,8.7043,8.705,8.7056,8.7095,0,0,0,0,0,0,8.5747,8.5793,8.5855,8.5976,8.6023,8.6247,8.6196,8.6213,8.6283,8.6281,8.6401,8.6417,8.6459,8.6622,8.6654,8.6727,8.6619,8.7037,8.7046,8.7054,8.7088,8.7102,8.7115,0,0,0,0,0,8.5731,8.5855,8.5858,8.5896,8.6103,8.6251,8.6278,8.6325,8.6289,8.6352,8.6416,8.6413,8.6698,8.6638,8.6674,8.6751,8.7032,8.7043,8.7053,8.7082,8.7099,8.7114,0,0,0,0,0,0,8.5736,8.5871,8.5876,8.6043,8.6136,8.6253,8.6333,8.6342,8.6445,8.6439,8.6491,8.6518,8.6669,8.6725,8.6655,8.6912,8.6861,8.6879,8.6871,8.6888,8.6901,8.6885,8.663,0,0,0,0,0,8.5757,8.5868,8.5979,8.6115,8.6162,8.624,8.6306,8.6335,8.6433,8.6471,8.6546,8.6639,8.675,8.6822,8.6929,8.7096,8.7123,8.7167,8.718,8.7191,8.7206,8.7301,8.7322,8.7093,8.7093,8.7092,0,0,8.58,8.5888,8.5954,8.6119,8.6194,8.6308,8.6273,8.6393,8.6478,8.6489,8.6638,8.6697,8.6804,8.6965,8.7039,8.7016,8.7276,8.7204,8.7212,8.7222,8.7314,8.7335,8.7355,8.71,8.7099,8.7097,0,0,8.5937,8.6014,8.6138,8.6215,8.6331,8.6383,8.6412,8.653,8.657,8.6721,8.6733,8.6833,8.7022,8.7099,8.7163,8.7333,8.7335,8.7366,8.7436,8.7528,8.7546,8.7562,8.7625,8.7647,8.738,8.7381,8.7381,0,8.5976,8.6149,8.6199,8.6322,8.6394,8.6413,8.6538,8.661,8.6753,8.6803,8.6775,8.7016,8.7089,8.7269,8.7311,8.7362,8.7397,8.7353,8.754,8.7557,8.7573,8.7633,8.7656,8.7384,8.7383,8.7383,8.7383,0,8.6192,8.6312,8.6397,8.654,8.6622,8.6744,8.6813,8.6889,8.6911,8.6965,8.712,8.7209,8.7336,8.738,8.7401,8.7565,8.7547,8.7529,8.7479,8.7597,8.7654,8.7678,8.7388,8.7387,8.7386,8.7385,0,0,8.6337,8.6509,8.6539,8.6606,8.6736,8.6829,8.6953,8.708,8.7146,8.7244,8.735,8.7511,8.7497,8.7569,8.7599,8.768,8.7811,8.7652,8.7656,8.768,8.7999,8.8013,8.8039,8.7814,8.7818,8.7822,8.7991,0,8.649,8.6714,8.6764,8.6956,8.7069,8.7089,8.7197,8.7288,8.7342,8.7444,8.7503,8.7618,8.7589,8.7633,8.7713,8.7778,8.7876,8.7766,8.7912,8.7917,8.7886,8.8068,8.8083,8.8238,8.8013,8.8017,8.802,0,8.6699,8.6807,8.7011,8.713,8.7179,8.7275,8.7397,8.7495,8.7599,8.7633,8.7716,8.7738,8.7867,8.7811,8.799,8.7914,8.7977,8.8018,8.8025,8.8041,8.7976,8.8091,8.8288,8.8312,8.8055,8.8052,8.805,0,8.6787,8.6983,8.7131,8.7187,8.7329,8.7397,8.7458,8.7559,8.7633,8.7739,8.7788,8.7906,8.7971,8.8061,8.8115,8.8068,8.8291,8.8238,8.8323,8.8322,8.8369,8.8366,8.8581,8.8407,8.8407,8.8406,8.8406,0,8.6953,8.7078,8.7174,8.7265,8.7405,8.7461,8.7598,8.7659,8.775,8.7853,8.7876,8.7971,8.8036,8.8141,8.8184,8.8327,8.8355,8.8386,8.8396,8.8385,8.8382,8.8427,8.8419,8.8412,8.8411,8.841,8.8409,0,8.7076,8.7144,8.7308,8.743,8.7464,8.7562,8.7666,8.7756,8.7811,8.7941,8.7975,8.8061,8.8186,8.8249,8.8403,8.8432,8.8594,8.8597,8.856,8.8565,8.8647,8.8639,8.89,8.8938,8.8737,8.8739,8.8741,0,8.7178,8.7275,8.7409,8.7482,8.7546,8.7661,8.7738,8.7797,8.7876,8.8004,8.8078,8.8205,8.831,8.8508,8.8584,8.8703,8.8709,8.8793,8.8727,8.8714,8.8713,8.8707,8.8718,8.8804,8.8806,8.8808,8.8809,0,8.7353,8.7383,8.7495,8.7619,8.7711,8.7811,8.7909,8.7967,8.8041,8.8129,8.8259,8.8341,8.8501,8.8627,8.8752,8.8813,8.8825,8.8829,8.8856,8.8846,8.8822,8.8838,8.8594,8.8823,8.8821,8.882,8.882,8.8819,8.747,8.7558,8.7668,8.7792,8.7873,8.7965,8.8056,8.8125,8.8235,8.8372,8.8399,8.8537,8.8641,8.881,8.8877,8.8985,8.8967,8.9004,8.9014,8.9023,8.9028,8.8804,8.9007,8.9007,8.9007,8.9006,8.9006,0,8.7648,8.772,8.7834,8.7973,8.8071,8.8075,8.8185,8.8266,8.8388,8.8485,8.8589,8.8739,8.8862,8.8949,8.9074,8.9144,8.9152,8.9175,8.917,8.9185,8.9036,8.9002,8.9166,8.9166,8.9166,8.9166,8.9166,8.9166,8.7752,8.7903,8.7947,8.8138,8.8209,8.8347,8.8409,8.8495,8.8573,8.8741,8.8844,8.8901,8.8994,8.9127,8.924,8.9262,8.9308,8.9331,8.9353,8.9212,8.9195,8.9179,8.9147,8.934,8.934,8.9494,8.9495,8.9496]}]]